Wind_Speed
8 9 9 9 9 8 8 8 9 9 9 9 9 9 9 9 9 8 8 7 7 6 6 6 5 5 5 5 4 4 4 4 4 3 3 3 3 3 2 3 2 3 2
8 8 8 9 9 9 8 8 8 9 9 9 8 9 9 8 8 8 8 7 6 6 6 5 5 5 4 4 4 3 3 3 3 3 3 3 3 2 2 2 2 2 2
7 7 8 8 8 8 8 8 8 9 9 8 8 9 8 7 7 7 6 6 6 6 5 5 5 5 4 3 3 3 2 3 3 3 3 2 2 2 1 1 1 1 1
7 6 7 8 7 7 8 9 9 9 8 8 8 8 7 7 7 7 7 6 5 5 4 4 5 5 3 3 3 3 2 2 2 2 2 1 1 1 0 1 0 1 1
6 6 7 7 6 7 7 8 8 8 8 7 8 7 7 7 6 6 7 7 6 5 5 4 4 4 2 2 3 3 2 1 1 1 1 1 1 1 0 1 1 1 2
7 7 8 7 7 7 7 7 7 7 7 7 7 7 7 6 6 6 6 6 6 5 5 4 3 3 1 2 2 2 2 2 2 1 1 1 1 1 1 2 2 2 3
8 7 7 7 7 7 7 6 7 7 7 7 7 6 6 6 5 5 5 5 5 4 4 4 3 2 1 2 2 2 2 1 1 1 1 1 2 2 2 2 3 3 3
8 8 7 8 7 7 7 7 7 7 7 6 6 6 6 5 5 4 5 5 4 4 3 3 1 1 1 2 2 2 2 1 1 1 1 1 2 2 2 3 3 4 4
8 7 7 7 7 7 7 6 5 5 6 5 5 5 5 5 4 4 4 3 3 3 2 1 1 1 1 2 1 2 1 1 1 1 1 2 2 3 3 3 3 4 5
9 8 7 6 6 6 5 5 5 5 5 4 4 4 4 4 4 4 3 3 2 2 1 1 1 0 2 1 1 1 0 1 1 1 2 2 3 3 3 4 4 5 5
8 8 7 5 6 6 5 4 4 4 4 4 4 4 4 4 4 3 3 2 2 2 1 1 1 1 1 1 2 2 1 1 2 2 3 3 3 3 4 5 5 6 6
7 7 7 6 6 6 5 4 3 4 4 4 3 3 3 3 2 2 2 2 1 1 1 1 1 2 2 3 3 3 2 2 3 3 3 4 4 4 5 5 5 6 6
6 6 6 5 5 5 4 3 3 3 4 3 3 2 1 1 1 1 2 2 2 2 2 2 3 3 3 3 3 3 3 4 4 5 5 5 5 5 5 6 6 6 6
6 5 5 4 4 4 4 3 3 3 3 3 2 2 1 1 1 2 2 2 2 2 3 3 3 4 4 4 4 4 4 4 5 5 5 6 6 6 6 6 6 7 7
4 4 4 4 3 3 3 3 2 3 2 2 2 1 1 2 2 2 2 2 3 3 3 4 4 4 4 5 5 4 5 6 6 6 6 7 7 7 7 7 7 8 8
5 4 4 3 3 3 2 2 2 2 2 2 1 2 3 3 3 3 3 3 4 4 4 5 5 6 6 6 5 6 6 7 7 8 8 8 8 9 9 9 8 8 8
5 4 4 4 3 2 2 2 2 2 2 2 2 3 3 4 4 5 5 5 5 5 6 6 7 7 7 7 7 7 7 7 8 8 9 9 10 10 10 10 10 10 10
4 3 3 3 3 3 3 3 2 3 3 4 4 4 5 5 4 5 6 7 7 7 7 8 9 8 8 8 8 8 8 9 9 9 10 10 11 11 11 11 11 11 11
4 4 3 4 3 3 3 3 4 4 5 5 6 6 6 5 6 6 7 7 8 8 8 9 10 9 9 9 10 10 10 10 10 11 11 11 12 12 12 12 12 12 12
4 5 5 5 5 5 5 5 5 5 6 7 7 7 7 7 7 8 9 9 9 9 9 8 9 9 9 10 11 11 11 11 11 12 12 12 12 12 12 13 13 13 13
6 6 6 6 6 6 6 6 6 6 7 8 8 9 9 9 9 9 10 10 10 10 10 10 10 10 11 12 11 12 12 12 12 13 13 14 13 13 14 14 15 14 14
6 7 7 6 7 7 7 7 7 8 8 8 8 9 9 10 10 11 11 11 11 11 11 12 12 12 12 12 12 12 12 13 13 14 14 15 15 15 15 15 14 14 14
7 8 8 8 7 8 8 8 9 9 9 9 9 9 10 10 11 12 12 12 12 12 12 13 13 12 13 13 14 14 14 14 15 15 15 16 16 16 16 16 16 16 16
7 8 9 8 8 9 9 10 10 10 10 10 10 11 12 12 13 13 12 12 12 13 14 14 14 14 15 15 15 15 15 15 16 15 15 16 16 16 16 16 16 17 17
8 8 9 8 9 10 10 11 11 11 11 12 12 13 13 13 13 13 13 13 14 14 15 15 15 15 15 15 16 17 17 17 17 17 17 17 17 16 16 15 16 17 17
8 9 9 9 10 10 11 11 11 12 13 13 13 13 13 13 13 13 14 14 15 16 16 16 16 16 16 17 17 18 19 19 19 18 18 18 18 17 16 16 16 17 18
Wind_Direction
87 94 94 97 97 96 100 104 105 111 112 112 115 116 115 113 110 109 106 105 108 105 105 99 101 105 109 112 107 114 113 110 96 106 116 129 135 132 136 160 181 191 186
87 92 95 98 95 96 101 105 105 112 112 110 111 115 116 114 113 109 108 108 108 107 106 102 102 104 108 114 111 108 113 113 97 102 108 111 113 116 142 166 176 180 190
90 95 100 99 98 101 104 107 102 104 109 105 109 115 115 115 115 115 113 111 110 114 116 110 109 105 115 115 115 118 118 115 108 109 105 110 116 128 144 188 181 194 184
88 96 103 103 103 105 108 105 105 103 103 103 106 111 112 112 109 113 122 117 113 119 124 125 115 104 119 121 124 132 125 124 109 105 117 122 128 142 171 167 194 204 208
89 99 107 105 101 108 106 101 102 106 104 104 106 102 107 112 110 113 123 123 115 113 115 114 104 90 114 147 150 147 142 154 132 126 143 154 163 189 202 214 234 226 234
91 100 106 99 95 99 105 102 101 109 109 110 109 103 99 102 103 99 117 127 119 113 103 98 88 78 86 144 164 147 153 155 160 172 225 214 202 214 242 259 250 245 243
88 99 105 103 98 97 101 114 106 112 113 115 111 104 96 95 99 100 111 122 119 114 108 94 84 65 110 155 152 141 153 147 154 203 230 219 220 227 244 252 255 254 253
90 97 103 105 101 100 99 99 100 102 109 109 102 96 95 97 96 96 109 107 107 110 108 99 91 89 138 140 123 124 147 157 189 222 221 224 235 236 246 246 250 254 253
91 92 99 102 102 104 105 101 96 98 103 105 102 99 103 102 92 92 102 104 109 111 111 101 63 77 153 130 96 118 124 161 193 198 239 247 242 246 255 257 257 257 254
83 87 93 92 99 103 101 99 93 92 94 92 98 99 106 101 89 86 93 100 102 100 96 72 43 57 168 118 86 74 41 227 213 231 256 258 252 256 264 266 261 261 259
78 78 86 90 95 97 97 91 83 80 82 81 88 93 100 97 94 88 77 75 82 78 65 358 6 11 26 32 19 355 331 275 249 253 270 271 264 264 267 267 264 264 261
78 80 83 90 92 94 94 90 82 76 75 76 77 80 89 88 84 75 61 47 45 31 354 330 325 328 326 329 330 320 305 288 285 278 281 277 268 269 271 269 267 268 262
73 79 84 86 88 90 89 81 73 65 66 63 55 62 64 52 42 32 22 1 339 337 319 309 300 302 304 309 309 307 296 291 288 290 286 282 281 271 272 273 273 271 263
71 78 79 83 81 83 77 62 54 63 50 40 46 46 44 31 15 12 360 353 350 328 316 315 313 304 296 296 298 301 299 294 292 289 288 285 283 273 272 275 274 271 264
64 69 74 73 73 81 68 44 43 39 33 32 37 10 353 335 322 336 340 329 328 317 312 312 310 306 296 290 289 296 296 290 291 293 290 285 282 277 274 275 274 275 270
58 57 64 68 70 69 61 44 37 26 12 355 354 344 322 323 319 315 312 318 315 308 305 304 302 301 294 292 295 295 293 291 292 292 291 287 283 281 277 275 273 273 271
48 47 48 47 47 48 43 29 21 21 18 350 327 324 317 317 312 307 302 307 305 301 299 296 293 295 298 294 295 292 290 292 294 290 287 284 283 282 277 275 275 275 274
31 27 24 22 25 21 14 17 6 359 354 347 328 312 307 309 306 303 302 305 302 296 291 290 288 288 290 296 292 291 288 289 292 288 285 285 285 284 279 276 277 277 276
7 358 354 349 347 348 344 343 336 333 337 332 323 315 309 307 311 311 309 310 305 301 294 293 289 287 289 292 290 288 287 285 285 284 284 285 285 283 280 278 276 275 275
340 338 333 329 330 326 321 323 321 322 325 322 318 314 308 300 300 304 306 308 310 308 299 298 300 293 293 292 290 287 286 283 282 282 283 284 286 285 283 279 276 274 273
320 320 319 313 311 312 311 308 308 314 316 317 314 310 302 297 296 303 305 304 308 306 301 299 301 298 300 298 291 288 288 282 281 281 283 283 284 285 284 283 280 276 274
316 315 310 303 302 302 304 304 302 307 311 314 312 307 301 300 301 305 305 304 301 301 300 300 301 299 300 300 298 293 288 283 281 284 286 285 283 282 283 284 281 278 278
316 314 310 309 305 300 299 301 302 305 310 312 311 305 302 301 301 301 302 300 300 301 302 300 299 298 300 301 299 296 294 291 286 285 287 286 283 283 284 284 281 279 278
318 317 313 311 308 306 303 302 299 301 306 310 310 311 308 305 305 302 300 300 298 297 299 298 296 300 298 297 297 297 295 292 292 291 289 288 286 287 289 286 282 281 278
318 321 320 317 313 309 306 304 297 296 301 307 308 309 310 309 307 302 301 302 301 299 299 299 296 296 296 297 297 297 295 293 292 292 289 288 288 288 289 285 284 283 280
317 317 318 318 318 313 311 310 309 306 306 306 307 308 307 306 308 306 304 304 302 300 300 298 296 295 294 295 296 296 294 292 290 289 287 287 287 287 289 286 285 284 281
Height
5884 5884 5884 5884 5883 5883 5883 5883 5883 5882 5882 5883 5883 5883 5883 5884 5884 5884 5884 5884 5884 5884 5884 5884 5884 5884 5885 5885 5885 5885 5886 5886 5886 5886 5886 5887 5887 5887 5888 5888 5888 5888 5888
5886 5885 5885 5885 5885 5884 5884 5884 5884 5884 5884 5884 5884 5884 5884 5885 5885 5885 5885 5885 5885 5885 5885 5885 5885 5885 5885 5886 5886 5886 5886 5886 5887 5887 5887 5887 5888 5888 5888 5889 5888 5889 5889
5887 5887 5886 5886 5886 5885 5885 5885 5885 5885 5885 5885 5885 5885 5885 5885 5885 5886 5886 5886 5886 5886 5885 5886 5886 5886 5886 5886 5886 5886 5887 5887 5887 5888 5887 5888 5888 5888 5888 5889 5889 5889 5889
5889 5888 5888 5888 5887 5887 5886 5886 5886 5886 5886 5886 5886 5886 5886 5886 5886 5886 5886 5886 5886 5886 5886 5886 5886 5886 5886 5886 5886 5887 5887 5887 5888 5888 5888 5888 5888 5888 5888 5889 5889 5889 5889
5890 5889 5889 5889 5889 5888 5888 5888 5888 5888 5887 5887 5887 5887 5887 5887 5887 5886 5886 5887 5887 5886 5887 5887 5887 5886 5886 5886 5886 5887 5887 5888 5888 5888 5888 5888 5888 5888 5888 5888 5889 5889 5889
5891 5891 5890 5890 5890 5890 5889 5889 5889 5889 5888 5888 5888 5888 5888 5888 5888 5888 5887 5887 5887 5887 5887 5887 5887 5887 5886 5886 5887 5887 5887 5888 5888 5888 5888 5888 5888 5888 5888 5888 5889 5889 5888
5892 5892 5892 5892 5892 5891 5891 5890 5889 5889 5889 5889 5889 5889 5889 5889 5888 5888 5888 5888 5888 5888 5888 5888 5887 5887 5886 5886 5887 5887 5887 5887 5888 5888 5888 5888 5888 5888 5888 5888 5888 5888 5888
5893 5893 5893 5893 5893 5893 5892 5892 5891 5891 5890 5890 5890 5890 5890 5889 5889 5889 5889 5889 5889 5889 5888 5888 5888 5887 5887 5887 5887 5887 5887 5887 5887 5887 5887 5888 5888 5888 5888 5888 5888 5888 5888
5895 5895 5895 5894 5894 5894 5894 5893 5893 5892 5892 5891 5891 5891 5891 5890 5890 5890 5889 5890 5890 5889 5889 5888 5888 5887 5887 5887 5888 5887 5887 5887 5887 5887 5887 5887 5887 5887 5887 5887 5887 5887 5887
5896 5896 5896 5896 5895 5895 5895 5894 5894 5893 5893 5893 5892 5892 5892 5891 5891 5890 5890 5890 5890 5890 5889 5889 5888 5888 5888 5888 5888 5888 5887 5887 5887 5887 5887 5887 5887 5887 5886 5886 5886 5886 5886
5898 5898 5897 5896 5896 5896 5896 5895 5895 5894 5893 5893 5893 5893 5892 5892 5891 5891 5891 5891 5891 5890 5890 5889 5889 5888 5888 5888 5888 5887 5887 5887 5887 5886 5886 5886 5886 5886 5886 5885 5885 5885 5885
5900 5899 5898 5898 5898 5897 5897 5896 5895 5894 5894 5894 5893 5893 5893 5893 5892 5891 5891 5891 5891 5890 5890 5889 5889 5888 5888 5888 5887 5887 5887 5886 5886 5886 5885 5885 5885 5885 5884 5884 5884 5883 5883
5901 5900 5900 5899 5899 5898 5898 5897 5896 5895 5895 5894 5894 5894 5893 5893 5893 5892 5892 5891 5891 5890 5890 5889 5888 5888 5887 5887 5887 5886 5886 5885 5885 5884 5884 5884 5883 5883 5883 5883 5882 5882 5881
5902 5902 5901 5900 5899 5899 5898 5898 5897 5896 5896 5895 5895 5894 5894 5893 5893 5892 5892 5891 5890 5890 5889 5889 5888 5887 5887 5886 5886 5885 5885 5884 5883 5883 5883 5882 5882 5882 5882 5881 5881 5880 5880
5903 5902 5902 5901 5900 5899 5899 5898 5897 5897 5896 5895 5895 5894 5894 5893 5893 5892 5891 5891 5890 5889 5889 5888 5887 5887 5886 5885 5885 5884 5883 5883 5882 5881 5881 5881 5881 5880 5880 5879 5879 5878 5878
5904 5903 5902 5901 5900 5900 5899 5898 5897 5896 5896 5895 5894 5894 5893 5892 5892 5891 5891 5890 5889 5889 5888 5887 5886 5886 5885 5884 5883 5883 5882 5881 5880 5880 5879 5879 5879 5878 5878 5877 5877 5877 5876
5905 5904 5903 5902 5901 5900 5899 5898 5897 5896 5896 5895 5894 5893 5892 5892 5891 5890 5890 5889 5888 5887 5886 5886 5885 5884 5883 5882 5882 5881 5880 5880 5879 5878 5877 5877 5876 5876 5875 5875 5875 5874 5874
5905 5904 5903 5902 5901 5900 5899 5898 5897 5896 5895 5894 5893 5892 5892 5891 5890 5889 5888 5888 5887 5886 5885 5884 5883 5882 5881 5880 5880 5879 5878 5878 5877 5876 5875 5874 5874 5873 5873 5872 5872 5871 5871
5905 5904 5903 5902 5901 5900 5899 5898 5897 5896 5895 5893 5892 5891 5891 5890 5889 5888 5887 5886 5885 5884 5883 5882 5880 5880 5879 5878 5877 5877 5876 5875 5874 5873 5873 5872 5871 5870 5870 5869 5868 5868 5867
5905 5904 5903 5902 5901 5900 5898 5897 5896 5895 5894 5892 5891 5890 5889 5888 5887 5886 5885 5884 5883 5882 5881 5879 5878 5877 5876 5876 5875 5874 5873 5872 5871 5870 5869 5869 5868 5867 5866 5865 5865 5864 5864
5905 5904 5903 5901 5900 5899 5898 5897 5895 5894 5893 5891 5890 5888 5887 5886 5885 5884 5883 5882 5881 5880 5878 5877 5876 5875 5874 5873 5872 5871 5870 5869 5868 5867 5866 5866 5865 5864 5863 5862 5862 5861 5860
5905 5903 5902 5900 5899 5898 5896 5895 5894 5893 5891 5890 5888 5887 5885 5884 5883 5882 5881 5880 5879 5877 5876 5875 5874 5872 5871 5870 5869 5868 5867 5866 5865 5864 5863 5862 5862 5861 5860 5859 5858 5857 5856
5903 5902 5900 5899 5897 5896 5895 5894 5892 5890 5889 5888 5886 5885 5884 5882 5881 5880 5878 5877 5876 5875 5873 5872 5871 5870 5868 5867 5866 5865 5863 5862 5861 5861 5860 5859 5858 5857 5856 5855 5854 5853 5852
5902 5900 5898 5897 5895 5894 5893 5892 5890 5889 5888 5886 5884 5883 5882 5880 5879 5877 5876 5874 5873 5871 5870 5869 5867 5866 5865 5863 5862 5861 5860 5859 5857 5857 5856 5855 5853 5853 5852 5851 5850 5849 5848
5900 5899 5897 5895 5894 5892 5891 5889 5888 5886 5885 5884 5882 5881 5879 5877 5875 5874 5873 5871 5870 5868 5867 5865 5864 5862 5861 5859 5858 5857 5855 5854 5853 5852 5852 5851 5850 5848 5847 5846 5845 5844 5843
5898 5897 5895 5893 5892 5890 5889 5887 5886 5884 5883 5881 5879 5878 5876 5874 5872 5871 5869 5868 5866 5865 5863 5862 5860 5858 5857 5855 5854 5852 5851 5850 5849 5848 5847 5846 5845 5844 5842 5841 5841 5840 5839